Year,Month,Day,Hour,Minute,Value (Times are PST for temperature in C)
2012,06,24,00,00,7.20
2012,06,24,00,01,7.20
2012,06,24,00,02,7.20
2012,06,24,00,03,7.10
2012,06,24,00,04,7.10
2012,06,24,00,05,7.10
2012,06,24,00,06,7.10
2012,06,24,00,07,7.10
2012,06,24,00,08,7.10
2012,06,24,00,09,7.10
2012,06,24,00,10,7.10
2012,06,24,00,11,7.10
2012,06,24,00,12,7.10
2012,06,24,00,13,7.00
2012,06,24,00,14,7.10
2012,06,24,00,15,7.10
2012,06,24,00,16,7.10
2012,06,24,00,17,7.10
2012,06,24,00,18,7.10
2012,06,24,00,19,7.10
2012,06,24,00,20,7.00
2012,06,24,00,21,7.00
2012,06,24,00,22,7.00
2012,06,24,00,23,7.00
2012,06,24,00,24,7.00
2012,06,24,00,25,7.00
2012,06,24,00,26,6.90
2012,06,24,00,27,6.90
2012,06,24,00,28,6.90
2012,06,24,00,29,6.90
2012,06,24,00,30,6.90
2012,06,24,00,31,6.90
2012,06,24,00,32,6.90
2012,06,24,00,33,6.90
2012,06,24,00,34,6.90
2012,06,24,00,35,6.90
2012,06,24,00,36,6.90
2012,06,24,00,37,6.80
2012,06,24,00,38,6.80
2012,06,24,00,39,6.80
2012,06,24,00,40,6.80
2012,06,24,00,41,6.80
2012,06,24,00,42,6.80
2012,06,24,00,43,6.80
2012,06,24,00,44,6.80
2012,06,24,00,45,6.80
2012,06,24,00,46,6.80
2012,06,24,00,47,6.80
2012,06,24,00,48,6.80
2012,06,24,00,49,6.80
2012,06,24,00,50,6.80
2012,06,24,00,51,6.70
2012,06,24,00,52,6.80
2012,06,24,00,53,6.80
2012,06,24,00,54,6.80
2012,06,24,00,55,6.80
2012,06,24,00,56,6.80
2012,06,24,00,57,6.80
2012,06,24,00,58,6.70
2012,06,24,00,59,6.70
2012,06,24,01,00,6.70
2012,06,24,01,01,6.70
2012,06,24,01,02,6.70
2012,06,24,01,03,6.70
2012,06,24,01,04,6.60
2012,06,24,01,05,6.60
2012,06,24,01,06,6.60
2012,06,24,01,07,6.60
2012,06,24,01,08,6.60
2012,06,24,01,09,6.60
2012,06,24,01,10,6.50
2012,06,24,01,11,6.50
2012,06,24,01,12,6.50
2012,06,24,01,13,6.50
2012,06,24,01,14,6.40
2012,06,24,01,15,6.40
2012,06,24,01,16,6.40
2012,06,24,01,17,6.40
2012,06,24,01,18,6.40
2012,06,24,01,19,6.40
2012,06,24,01,20,6.30
2012,06,24,01,21,6.30
2012,06,24,01,22,6.30
2012,06,24,01,23,6.30
2012,06,24,01,24,6.30
2012,06,24,01,25,6.30
2012,06,24,01,26,6.30
2012,06,24,01,27,6.30
2012,06,24,01,28,6.20
2012,06,24,01,29,6.20
2012,06,24,01,30,6.20
2012,06,24,01,31,6.20
2012,06,24,01,32,6.20
2012,06,24,01,33,6.20
2012,06,24,01,34,6.10
2012,06,24,01,35,6.10
2012,06,24,01,36,6.10
2012,06,24,01,37,6.10
2012,06,24,01,38,6.10
2012,06,24,01,39,6.10
2012,06,24,01,40,6.00
2012,06,24,01,41,6.00
2012,06,24,01,42,6.00
2012,06,24,01,43,6.00
2012,06,24,01,44,6.00
2012,06,24,01,45,5.90
2012,06,24,01,46,5.90
2012,06,24,01,47,5.90
2012,06,24,01,48,5.90
2012,06,24,01,49,5.90
2012,06,24,01,50,5.90
2012,06,24,01,51,5.90
2012,06,24,01,52,5.90
2012,06,24,01,53,5.90
2012,06,24,01,54,5.90
2012,06,24,01,55,5.90
2012,06,24,01,56,5.90
2012,06,24,01,57,5.90
2012,06,24,01,58,5.90
2012,06,24,01,59,5.90
2012,06,24,02,00,5.90
2012,06,24,02,01,5.90
2012,06,24,02,02,5.90
2012,06,24,02,03,5.90
2012,06,24,02,04,5.90
2012,06,24,02,05,5.90
2012,06,24,02,06,5.90
2012,06,24,02,07,5.90
2012,06,24,02,08,5.90
2012,06,24,02,09,5.90
2012,06,24,02,10,5.90
2012,06,24,02,11,5.90
2012,06,24,02,12,5.90
2012,06,24,02,13,5.80
2012,06,24,02,14,5.80
2012,06,24,02,15,5.80
2012,06,24,02,16,5.80
2012,06,24,02,17,5.80
2012,06,24,02,18,5.80
2012,06,24,02,19,5.80
2012,06,24,02,20,5.80
2012,06,24,02,21,5.80
2012,06,24,02,22,5.80
2012,06,24,02,23,5.70
2012,06,24,02,24,5.70
2012,06,24,02,25,5.70
2012,06,24,02,26,5.70
2012,06,24,02,27,5.70
2012,06,24,02,28,5.70
2012,06,24,02,29,5.70
2012,06,24,02,30,5.70
2012,06,24,02,31,5.60
2012,06,24,02,32,5.60
2012,06,24,02,33,5.60
2012,06,24,02,34,5.60
2012,06,24,02,35,5.60
2012,06,24,02,36,5.60
2012,06,24,02,37,5.60
2012,06,24,02,38,5.60
2012,06,24,02,39,5.50
2012,06,24,02,40,5.50
2012,06,24,02,41,5.50
2012,06,24,02,42,5.50
2012,06,24,02,43,5.50
2012,06,24,02,44,5.40
2012,06,24,02,45,5.40
2012,06,24,02,46,5.40
2012,06,24,02,47,5.40
2012,06,24,02,48,5.40
2012,06,24,02,49,5.40
2012,06,24,02,50,5.40
2012,06,24,02,51,5.40
2012,06,24,02,52,5.40
2012,06,24,02,53,5.40
2012,06,24,02,54,5.40
2012,06,24,02,55,5.40
2012,06,24,02,56,5.40
2012,06,24,02,57,5.40
2012,06,24,02,58,5.40
2012,06,24,02,59,5.40
2012,06,24,03,00,5.40
2012,06,24,03,01,5.40
2012,06,24,03,02,5.40
2012,06,24,03,03,5.40
2012,06,24,03,06,5.30
2012,06,24,03,07,5.30
2012,06,24,03,08,5.30
2012,06,24,03,09,5.30
2012,06,24,03,10,5.30
2012,06,24,03,11,5.30
2012,06,24,03,12,5.20
2012,06,24,03,13,5.20
2012,06,24,03,14,5.20
2012,06,24,03,15,5.20
2012,06,24,03,16,5.20
2012,06,24,03,17,5.20
2012,06,24,03,18,5.20
2012,06,24,03,19,5.20
2012,06,24,03,20,5.20
2012,06,24,03,21,5.20
2012,06,24,03,22,5.20
2012,06,24,03,23,5.20
2012,06,24,03,24,5.20
2012,06,24,03,25,5.20
2012,06,24,03,26,5.20
2012,06,24,03,27,5.10
2012,06,24,03,28,5.10
2012,06,24,03,29,5.10
2012,06,24,03,30,5.10
2012,06,24,03,31,5.10
2012,06,24,03,32,5.10
2012,06,24,03,33,5.10
2012,06,24,03,34,5.10
2012,06,24,03,35,5.10
2012,06,24,03,36,5.10
2012,06,24,03,37,5.10
2012,06,24,03,38,5.10
2012,06,24,03,39,5.10
2012,06,24,03,40,5.10
2012,06,24,03,41,5.10
2012,06,24,03,42,5.00
2012,06,24,03,43,5.00
2012,06,24,03,44,5.00
2012,06,24,03,45,5.00
2012,06,24,03,46,5.00
2012,06,24,03,47,5.00
2012,06,24,03,48,4.90
2012,06,24,03,49,4.90
2012,06,24,03,50,4.90
2012,06,24,03,51,4.90
2012,06,24,03,52,4.90
2012,06,24,03,53,4.90
2012,06,24,03,54,4.90
2012,06,24,03,55,4.90
2012,06,24,03,56,4.90
2012,06,24,03,57,4.90
2012,06,24,03,58,4.90
2012,06,24,03,59,4.80
2012,06,24,04,00,4.80
2012,06,24,04,01,4.80
2012,06,24,04,02,4.80
2012,06,24,04,03,4.80
2012,06,24,04,04,4.80
2012,06,24,04,05,4.80
2012,06,24,04,06,4.80
2012,06,24,04,07,4.80
2012,06,24,04,08,4.70
2012,06,24,04,09,4.70
2012,06,24,04,10,4.70
2012,06,24,04,11,4.70
2012,06,24,04,12,4.70
2012,06,24,04,13,4.70
2012,06,24,04,14,4.60
2012,06,24,04,15,4.60
2012,06,24,04,16,4.60
2012,06,24,04,17,4.60
2012,06,24,04,18,4.60
2012,06,24,04,19,4.60
2012,06,24,04,20,4.60
2012,06,24,04,21,4.60
2012,06,24,04,22,4.60
2012,06,24,04,23,4.60
2012,06,24,04,24,4.60
2012,06,24,04,25,4.60
2012,06,24,04,26,4.60
2012,06,24,04,27,4.60
2012,06,24,04,28,4.60
2012,06,24,04,29,4.60
2012,06,24,04,30,4.60
2012,06,24,04,31,4.60
2012,06,24,04,32,4.60
2012,06,24,04,33,4.60
2012,06,24,04,34,4.60
2012,06,24,04,35,4.60
2012,06,24,04,36,4.60
2012,06,24,04,37,4.60
2012,06,24,04,38,4.60
2012,06,24,04,39,4.60
2012,06,24,04,40,4.50
2012,06,24,04,41,4.50
2012,06,24,04,42,4.50
2012,06,24,04,43,4.50
2012,06,24,04,44,4.50
2012,06,24,04,45,4.40
2012,06,24,04,46,4.40
2012,06,24,04,47,4.40
2012,06,24,04,48,4.40
2012,06,24,04,49,4.40
2012,06,24,04,50,4.40
2012,06,24,04,51,4.40
2012,06,24,04,52,4.40
2012,06,24,04,53,4.40
2012,06,24,04,54,4.40
2012,06,24,04,55,4.40
2012,06,24,04,56,4.40
2012,06,24,04,57,4.40
2012,06,24,04,58,4.40
2012,06,24,04,59,4.40
2012,06,24,05,00,4.30
2012,06,24,05,01,4.30
2012,06,24,05,02,4.30
2012,06,24,05,03,4.30
2012,06,24,05,04,4.30
2012,06,24,05,05,4.30
2012,06,24,05,06,4.30
2012,06,24,05,07,4.30
2012,06,24,05,08,4.30
2012,06,24,05,09,4.30
2012,06,24,05,10,4.30
2012,06,24,05,11,4.30
2012,06,24,05,12,4.30
2012,06,24,05,13,4.30
2012,06,24,05,14,4.30
2012,06,24,05,15,4.30
2012,06,24,05,16,4.30
2012,06,24,05,17,4.20
2012,06,24,05,18,4.20
2012,06,24,05,19,4.20
2012,06,24,05,20,4.20
2012,06,24,05,21,4.20
2012,06,24,05,22,4.20
2012,06,24,05,23,4.20
2012,06,24,05,24,4.20
2012,06,24,05,25,4.20
2012,06,24,05,26,4.20
2012,06,24,05,27,4.20
2012,06,24,05,28,4.20
2012,06,24,05,29,4.10
2012,06,24,05,30,4.10
2012,06,24,05,31,4.10
2012,06,24,05,32,4.10
2012,06,24,05,33,4.10
2012,06,24,05,34,4.10
2012,06,24,05,35,4.10
2012,06,24,05,36,4.10
2012,06,24,05,37,4.10
2012,06,24,05,38,4.10
2012,06,24,05,39,4.10
2012,06,24,05,40,4.10
2012,06,24,05,41,4.10
2012,06,24,05,42,4.10
2012,06,24,05,43,4.10
2012,06,24,05,44,4.10
2012,06,24,05,45,4.10
2012,06,24,05,46,4.10
2012,06,24,05,47,4.10
2012,06,24,05,48,4.10
2012,06,24,05,49,4.20
2012,06,24,05,50,4.20
2012,06,24,05,51,4.20
2012,06,24,05,52,4.20
2012,06,24,05,53,4.20
2012,06,24,05,54,4.20
2012,06,24,05,55,4.20
2012,06,24,05,56,4.20
2012,06,24,05,57,4.20
2012,06,24,05,58,4.30
2012,06,24,05,59,4.30
2012,06,24,06,00,4.30
2012,06,24,06,01,4.30
2012,06,24,06,02,4.30
2012,06,24,06,03,4.30
2012,06,24,06,04,4.30
2012,06,24,06,05,4.30
2012,06,24,06,06,4.30
2012,06,24,06,07,4.30
2012,06,24,06,08,4.30
2012,06,24,06,09,4.30
2012,06,24,06,10,4.40
2012,06,24,06,11,4.40
2012,06,24,06,12,4.40
2012,06,24,06,13,4.50
2012,06,24,06,14,4.50
2012,06,24,06,15,4.60
2012,06,24,06,16,4.60
2012,06,24,06,17,4.60
2012,06,24,06,18,4.60
2012,06,24,06,19,4.60
2012,06,24,06,20,4.60
2012,06,24,06,21,4.60
2012,06,24,06,22,4.70
2012,06,24,06,23,4.70
2012,06,24,06,24,4.70
2012,06,24,06,25,4.70
2012,06,24,06,26,4.70
2012,06,24,06,27,4.70
2012,06,24,06,28,4.70
2012,06,24,06,29,4.70
2012,06,24,06,30,4.70
2012,06,24,06,31,4.70
2012,06,24,06,32,4.70
2012,06,24,06,33,4.70
2012,06,24,06,34,4.70
2012,06,24,06,35,4.70
2012,06,24,06,36,4.70
2012,06,24,06,37,4.80
2012,06,24,06,38,4.80
2012,06,24,06,39,4.80
2012,06,24,06,40,4.80
2012,06,24,06,41,4.80
2012,06,24,06,42,4.80
2012,06,24,06,43,4.90
2012,06,24,06,44,4.90
2012,06,24,06,45,4.90
2012,06,24,06,46,4.90
2012,06,24,06,47,4.90
2012,06,24,06,48,4.90
2012,06,24,06,49,4.90
2012,06,24,06,50,5.00
2012,06,24,06,51,5.00
2012,06,24,06,52,5.00
2012,06,24,06,53,5.00
2012,06,24,06,54,5.10
2012,06,24,06,55,5.10
2012,06,24,06,56,5.10
2012,06,24,06,57,5.10
2012,06,24,06,58,5.10
2012,06,24,06,59,5.10
2012,06,24,07,00,5.20
2012,06,24,07,01,5.20
2012,06,24,07,02,5.20
2012,06,24,07,03,5.30
2012,06,24,07,04,5.30
2012,06,24,07,05,5.30
2012,06,24,07,06,5.30
2012,06,24,07,07,5.40
2012,06,24,07,08,5.40
2012,06,24,07,09,5.50
2012,06,24,07,10,5.50
2012,06,24,07,11,5.60
2012,06,24,07,12,5.60
2012,06,24,07,13,5.70
2012,06,24,07,14,5.70
2012,06,24,07,15,5.80
2012,06,24,07,16,5.80
2012,06,24,07,17,5.80
2012,06,24,07,18,5.90
2012,06,24,07,19,5.90
2012,06,24,07,20,6.00
2012,06,24,07,21,6.00
2012,06,24,07,22,6.10
2012,06,24,07,23,6.10
2012,06,24,07,24,6.20
2012,06,24,07,25,6.20
2012,06,24,07,26,6.30
2012,06,24,07,27,6.30
2012,06,24,07,28,6.30
2012,06,24,07,29,6.40
2012,06,24,07,30,6.40
2012,06,24,07,31,6.50
2012,06,24,07,32,6.60
2012,06,24,07,33,6.60
2012,06,24,07,34,6.70
2012,06,24,07,35,6.70
2012,06,24,07,36,6.70
2012,06,24,07,37,6.70
2012,06,24,07,38,6.70
2012,06,24,07,39,6.70
2012,06,24,07,40,6.70
2012,06,24,07,41,6.80
2012,06,24,07,42,6.80
2012,06,24,07,43,6.80
2012,06,24,07,44,6.80
2012,06,24,07,45,6.80
2012,06,24,07,46,6.90
2012,06,24,07,47,6.90
2012,06,24,07,48,6.90
2012,06,24,07,49,7.00
2012,06,24,07,50,7.00
2012,06,24,07,51,7.10
2012,06,24,07,52,7.10
2012,06,24,07,53,7.20
2012,06,24,07,54,7.20
2012,06,24,07,55,7.20
2012,06,24,07,56,7.20
2012,06,24,07,57,7.20
2012,06,24,07,58,7.30
2012,06,24,07,59,7.30
2012,06,24,08,00,7.40
2012,06,24,08,01,7.40
2012,06,24,08,02,7.40
2012,06,24,08,03,7.50
2012,06,24,08,04,7.50
2012,06,24,08,05,7.60
2012,06,24,08,06,7.60
2012,06,24,08,07,7.70
2012,06,24,08,08,7.70
2012,06,24,08,09,7.80
2012,06,24,08,10,7.80
2012,06,24,08,11,7.80
2012,06,24,08,12,7.90
2012,06,24,08,13,7.90
2012,06,24,08,14,7.90
2012,06,24,08,15,7.90
2012,06,24,08,16,8.00
2012,06,24,08,17,8.00
2012,06,24,08,18,8.10
2012,06,24,08,19,8.10
2012,06,24,08,20,8.20
2012,06,24,08,21,8.20
2012,06,24,08,22,8.20
2012,06,24,08,23,8.30
2012,06,24,08,24,8.40
2012,06,24,08,25,8.40
2012,06,24,08,26,8.50
2012,06,24,08,27,8.50
2012,06,24,08,28,8.60
2012,06,24,08,29,8.60
2012,06,24,08,30,8.60
2012,06,24,08,31,8.70
2012,06,24,08,32,8.70
2012,06,24,08,33,8.70
2012,06,24,08,34,8.80
2012,06,24,08,35,8.80
2012,06,24,08,36,8.90
2012,06,24,08,37,8.90
2012,06,24,08,38,9.00
2012,06,24,08,39,9.10
2012,06,24,08,40,9.10
2012,06,24,08,41,9.20
2012,06,24,08,42,9.20
2012,06,24,08,43,9.30
2012,06,24,08,44,9.30
2012,06,24,08,45,9.30
2012,06,24,08,46,9.30
2012,06,24,08,47,9.30
2012,06,24,08,48,9.40
2012,06,24,08,49,9.40
2012,06,24,08,50,9.50
2012,06,24,08,51,9.50
2012,06,24,08,52,9.60
2012,06,24,08,53,9.60
2012,06,24,08,54,9.70
2012,06,24,08,55,9.70
2012,06,24,08,56,9.70
2012,06,24,08,57,9.70
2012,06,24,08,58,9.80
2012,06,24,08,59,9.80
2012,06,24,09,00,9.80
2012,06,24,09,01,9.80
2012,06,24,09,02,9.80
2012,06,24,09,03,9.90
2012,06,24,09,04,9.90
2012,06,24,09,05,10.00
2012,06,24,09,06,10.00
2012,06,24,09,07,10.10
2012,06,24,09,08,10.20
2012,06,24,09,09,10.20
2012,06,24,09,10,10.20
2012,06,24,09,11,10.20
2012,06,24,09,12,10.20
2012,06,24,09,13,10.30
2012,06,24,09,14,10.30
2012,06,24,09,15,10.30
2012,06,24,09,16,10.40
2012,06,24,09,17,10.40
2012,06,24,09,18,10.50
2012,06,24,09,19,10.50
2012,06,24,09,20,10.60
2012,06,24,09,21,10.60
2012,06,24,09,22,10.70
2012,06,24,09,23,10.80
2012,06,24,09,24,10.80
2012,06,24,09,25,10.80
2012,06,24,09,26,10.90
2012,06,24,09,27,11.00
2012,06,24,09,28,11.00
2012,06,24,09,29,11.10
2012,06,24,09,30,11.20
2012,06,24,09,31,11.20
2012,06,24,09,32,11.20
2012,06,24,09,33,11.30
2012,06,24,09,34,11.30
2012,06,24,09,35,11.30
2012,06,24,09,36,11.40
2012,06,24,09,37,11.40
2012,06,24,09,38,11.40
2012,06,24,09,39,11.40
2012,06,24,09,40,11.50
2012,06,24,09,41,11.60
2012,06,24,09,42,11.60
2012,06,24,09,43,11.70
2012,06,24,09,44,11.80
2012,06,24,09,45,11.90
2012,06,24,09,46,11.90
2012,06,24,09,47,12.00
2012,06,24,09,48,12.10
2012,06,24,09,49,12.10
2012,06,24,09,50,12.10
2012,06,24,09,51,12.10
2012,06,24,09,52,12.20
2012,06,24,09,53,12.20
2012,06,24,09,54,12.30
2012,06,24,09,55,12.30
2012,06,24,09,56,12.30
2012,06,24,09,57,12.30
2012,06,24,09,58,12.40
2012,06,24,09,59,12.50
2012,06,24,10,00,12.60
2012,06,24,10,01,12.70
2012,06,24,10,02,12.70
2012,06,24,10,03,12.80
2012,06,24,10,04,12.80
2012,06,24,10,05,12.80
2012,06,24,10,06,12.90
2012,06,24,10,07,12.90
2012,06,24,10,08,13.00
2012,06,24,10,09,13.00
2012,06,24,10,10,13.10
2012,06,24,10,11,13.20
2012,06,24,10,12,13.20
2012,06,24,10,13,13.30
2012,06,24,10,14,13.40
2012,06,24,10,15,13.40
2012,06,24,10,16,13.50
2012,06,24,10,17,13.60
2012,06,24,10,18,13.70
2012,06,24,10,19,13.70
2012,06,24,10,20,13.70
2012,06,24,10,21,13.80
2012,06,24,10,22,13.80
2012,06,24,10,23,13.80
2012,06,24,10,24,13.80
2012,06,24,10,25,13.80
2012,06,24,10,26,13.90
2012,06,24,10,27,13.90
2012,06,24,10,28,14.00
2012,06,24,10,29,14.10
2012,06,24,10,30,14.20
2012,06,24,10,31,14.20
2012,06,24,10,32,14.30
2012,06,24,10,33,14.40
2012,06,24,10,34,14.50
2012,06,24,10,35,14.60
2012,06,24,10,36,14.70
2012,06,24,10,37,14.70
2012,06,24,10,38,14.90
2012,06,24,10,39,15.00
2012,06,24,10,40,15.00
2012,06,24,10,41,15.00
2012,06,24,10,42,15.00
2012,06,24,10,43,15.00
2012,06,24,10,44,15.00
2012,06,24,10,45,15.10
2012,06,24,10,46,15.10
2012,06,24,10,47,15.20
2012,06,24,10,48,15.10
2012,06,24,10,49,15.20
2012,06,24,10,50,15.20
2012,06,24,10,51,15.20
2012,06,24,10,52,15.20
2012,06,24,10,53,15.20
2012,06,24,10,54,15.20
2012,06,24,10,55,15.20
2012,06,24,10,56,15.30
2012,06,24,10,57,15.30
2012,06,24,10,58,15.30
2012,06,24,10,59,15.40
2012,06,24,11,00,15.40
2012,06,24,11,01,15.40
2012,06,24,11,02,15.50
2012,06,24,11,03,15.60
2012,06,24,11,04,15.60
2012,06,24,11,05,15.60
2012,06,24,11,06,15.60
2012,06,24,11,07,15.60
2012,06,24,11,08,15.60
2012,06,24,11,09,15.60
2012,06,24,11,10,15.70
2012,06,24,11,11,15.70
2012,06,24,11,12,15.80
2012,06,24,11,13,15.80
2012,06,24,11,14,15.90
2012,06,24,11,15,15.80
2012,06,24,11,16,15.80
2012,06,24,11,17,15.70
2012,06,24,11,18,15.60
2012,06,24,11,19,15.60
2012,06,24,11,20,15.60
2012,06,24,11,21,15.60
2012,06,24,11,22,15.60
2012,06,24,11,23,15.60
2012,06,24,11,24,15.70
2012,06,24,11,25,15.70
2012,06,24,11,26,15.70
2012,06,24,11,27,15.70
2012,06,24,11,28,15.80
2012,06,24,11,29,15.80
2012,06,24,11,30,15.80
2012,06,24,11,31,15.80
2012,06,24,11,32,15.90
2012,06,24,11,33,16.00
2012,06,24,11,34,16.00
2012,06,24,11,35,16.00
2012,06,24,11,36,16.00
2012,06,24,11,37,16.10
2012,06,24,11,38,16.10
2012,06,24,11,39,16.10
2012,06,24,11,40,16.10
2012,06,24,11,41,16.10
2012,06,24,11,42,16.10
2012,06,24,11,43,16.10
2012,06,24,11,44,16.20
2012,06,24,11,45,16.20
2012,06,24,11,46,16.20
2012,06,24,11,47,16.10
2012,06,24,11,48,16.10
2012,06,24,11,49,16.00
2012,06,24,11,50,16.00
2012,06,24,11,51,16.00
2012,06,24,11,52,16.10
2012,06,24,11,53,16.10
2012,06,24,11,54,16.10
2012,06,24,11,55,16.10
2012,06,24,11,56,16.20
2012,06,24,11,57,16.10
2012,06,24,11,58,16.10
2012,06,24,11,59,16.10
2012,06,24,12,00,16.00
2012,06,24,12,01,16.00
2012,06,24,12,02,15.90
2012,06,24,12,03,15.90
2012,06,24,12,04,15.90
2012,06,24,12,05,15.90
2012,06,24,12,06,15.90
2012,06,24,12,07,15.90
2012,06,24,12,08,15.90
2012,06,24,12,09,15.90
2012,06,24,12,10,15.90
2012,06,24,12,11,16.00
2012,06,24,12,12,16.10
2012,06,24,12,13,16.20
2012,06,24,12,14,16.20
2012,06,24,12,15,16.20
2012,06,24,12,16,16.20
2012,06,24,12,17,16.20
2012,06,24,12,18,16.20
2012,06,24,12,19,16.30
2012,06,24,12,20,16.30
2012,06,24,12,21,16.30
2012,06,24,12,22,16.40
2012,06,24,12,23,16.50
2012,06,24,12,24,16.50
2012,06,24,12,25,16.40
2012,06,24,12,26,16.30
2012,06,24,12,27,16.30
2012,06,24,12,28,16.20
2012,06,24,12,29,16.20
2012,06,24,12,30,16.10
2012,06,24,12,31,16.10
2012,06,24,12,32,16.10
2012,06,24,12,33,16.10
2012,06,24,12,34,16.10
2012,06,24,12,35,16.10
2012,06,24,12,36,16.10
2012,06,24,12,37,16.10
2012,06,24,12,38,16.20
2012,06,24,12,39,16.20
2012,06,24,12,40,16.20
2012,06,24,12,41,16.30
2012,06,24,12,42,16.30
2012,06,24,12,43,16.30
2012,06,24,12,44,16.40
2012,06,24,12,45,16.40
2012,06,24,12,46,16.40
2012,06,24,12,47,16.40
2012,06,24,12,48,16.40
2012,06,24,12,49,16.40
2012,06,24,12,50,16.40
2012,06,24,12,51,16.40
2012,06,24,12,52,16.40
2012,06,24,12,53,16.50
2012,06,24,12,54,16.50
2012,06,24,12,55,16.50
2012,06,24,12,56,16.60
2012,06,24,12,57,16.60
2012,06,24,12,58,16.70
2012,06,24,12,59,16.70
2012,06,24,13,00,16.80
2012,06,24,13,01,16.80
2012,06,24,13,02,16.90
2012,06,24,13,03,16.90
2012,06,24,13,04,16.90
2012,06,24,13,05,17.00
2012,06,24,13,06,17.00
2012,06,24,13,07,16.90
2012,06,24,13,08,16.90
2012,06,24,13,09,16.80
2012,06,24,13,10,16.80
2012,06,24,13,11,16.90
2012,06,24,13,12,16.90
2012,06,24,13,13,16.90
2012,06,24,13,14,17.00
2012,06,24,13,15,17.00
2012,06,24,13,16,17.00
2012,06,24,13,17,17.10
2012,06,24,13,18,17.10
2012,06,24,13,19,17.10
2012,06,24,13,20,17.10
2012,06,24,13,21,17.10
2012,06,24,13,22,17.10
2012,06,24,13,23,17.20
2012,06,24,13,24,17.10
2012,06,24,13,25,17.10
2012,06,24,13,26,17.10
2012,06,24,13,27,17.10
2012,06,24,13,28,17.10
2012,06,24,13,29,17.00
2012,06,24,13,30,17.00
2012,06,24,13,31,17.00
2012,06,24,13,32,16.90
2012,06,24,13,33,16.90
2012,06,24,13,34,16.90
2012,06,24,13,35,16.80
2012,06,24,13,36,16.80
2012,06,24,13,37,16.80
2012,06,24,13,38,16.80
2012,06,24,13,39,16.80
2012,06,24,13,40,16.80
2012,06,24,13,41,16.70
2012,06,24,13,42,16.70
2012,06,24,13,43,16.60
2012,06,24,13,44,16.60
2012,06,24,13,45,16.60
2012,06,24,13,46,16.60
2012,06,24,13,47,16.60
2012,06,24,13,48,16.60
2012,06,24,13,49,16.60
2012,06,24,13,50,16.60
2012,06,24,13,51,16.60
2012,06,24,13,52,16.60
2012,06,24,13,53,16.60
2012,06,24,13,54,16.60
2012,06,24,13,55,16.60
2012,06,24,13,56,16.60
2012,06,24,13,57,16.70
2012,06,24,13,58,16.80
2012,06,24,13,59,17.00
2012,06,24,14,00,17.10
2012,06,24,14,01,17.30
2012,06,24,14,02,17.40
2012,06,24,14,03,17.50
2012,06,24,14,04,17.50
2012,06,24,14,05,17.50
2012,06,24,14,06,17.50
2012,06,24,14,07,17.40
2012,06,24,14,08,17.40
2012,06,24,14,09,17.50
2012,06,24,14,10,17.60
2012,06,24,14,11,17.60
2012,06,24,14,12,17.60
2012,06,24,14,13,17.60
2012,06,24,14,14,17.60
2012,06,24,14,15,17.60
2012,06,24,14,16,17.50
2012,06,24,14,17,17.50
2012,06,24,14,18,17.40
2012,06,24,14,19,17.40
2012,06,24,14,20,17.50
2012,06,24,14,21,17.60
2012,06,24,14,22,17.70
2012,06,24,14,23,17.70
2012,06,24,14,24,17.80
2012,06,24,14,25,17.80
2012,06,24,14,26,17.80
2012,06,24,14,27,17.90
2012,06,24,14,28,17.90
2012,06,24,14,29,17.90
2012,06,24,14,30,17.90
2012,06,24,14,31,17.90
2012,06,24,14,32,17.80
2012,06,24,14,33,17.80
2012,06,24,14,34,17.70
2012,06,24,14,35,17.70
2012,06,24,14,36,17.70
2012,06,24,14,37,17.70
2012,06,24,14,38,17.70
2012,06,24,14,39,17.70
2012,06,24,14,40,17.70
2012,06,24,14,41,17.80
2012,06,24,14,42,17.80
2012,06,24,14,43,17.80
2012,06,24,14,44,17.80
2012,06,24,14,45,17.80
2012,06,24,14,46,17.80
2012,06,24,14,47,17.80
2012,06,24,14,48,17.80
2012,06,24,14,49,17.90
2012,06,24,14,50,17.90
2012,06,24,14,51,18.00
2012,06,24,14,52,18.00
2012,06,24,14,53,17.90
2012,06,24,14,54,17.90
2012,06,24,14,55,17.90
2012,06,24,14,56,17.90
2012,06,24,14,57,17.80
2012,06,24,14,58,17.80
2012,06,24,14,59,17.80
2012,06,24,15,00,17.90
2012,06,24,15,01,17.90
2012,06,24,15,02,17.90
2012,06,24,15,03,17.90
2012,06,24,15,04,17.90
2012,06,24,15,05,18.00
2012,06,24,15,06,18.00
2012,06,24,15,07,18.00
2012,06,24,15,08,18.00
2012,06,24,15,09,18.00
2012,06,24,15,10,18.00
2012,06,24,15,11,18.00
2012,06,24,15,12,18.00
2012,06,24,15,13,17.90
2012,06,24,15,14,17.90
2012,06,24,15,15,17.90
2012,06,24,15,16,18.00
2012,06,24,15,17,18.00
2012,06,24,15,18,18.10
2012,06,24,15,19,18.10
2012,06,24,15,20,18.20
2012,06,24,15,21,18.20
2012,06,24,15,22,18.20
2012,06,24,15,23,18.20
2012,06,24,15,24,18.20
2012,06,24,15,25,18.20
2012,06,24,15,26,18.20
2012,06,24,15,27,18.30
2012,06,24,15,28,18.30
2012,06,24,15,29,18.30
2012,06,24,15,30,18.30
2012,06,24,15,31,18.40
2012,06,24,15,32,18.40
2012,06,24,15,33,18.50
2012,06,24,15,34,18.50
2012,06,24,15,35,18.40
2012,06,24,15,36,18.40
2012,06,24,15,37,18.40
2012,06,24,15,38,18.40
2012,06,24,15,39,18.40
2012,06,24,15,40,18.40
2012,06,24,15,41,18.30
2012,06,24,15,42,18.30
2012,06,24,15,43,18.20
2012,06,24,15,44,18.10
2012,06,24,15,45,18.10
2012,06,24,15,46,18.10
2012,06,24,15,47,18.20
2012,06,24,15,48,18.20
2012,06,24,15,49,18.20
2012,06,24,15,50,18.20
2012,06,24,15,51,18.20
2012,06,24,15,52,18.30
2012,06,24,15,53,18.30
2012,06,24,15,54,18.30
2012,06,24,15,55,18.30
2012,06,24,15,56,18.30
2012,06,24,15,57,18.30
2012,06,24,15,58,18.30
2012,06,24,15,59,18.30
2012,06,24,16,00,18.30
2012,06,24,16,01,18.30
2012,06,24,16,02,18.30
2012,06,24,16,03,18.30
2012,06,24,16,04,18.20
2012,06,24,16,05,18.30
2012,06,24,16,06,18.20
2012,06,24,16,07,18.20
2012,06,24,16,08,18.20
2012,06,24,16,09,18.20
2012,06,24,16,10,18.20
2012,06,24,16,11,18.20
2012,06,24,16,12,18.10
2012,06,24,16,13,18.10
2012,06,24,16,14,18.10
2012,06,24,16,15,18.10
2012,06,24,16,16,18.10
2012,06,24,16,17,18.10
2012,06,24,16,18,18.10
2012,06,24,16,19,18.10
2012,06,24,16,20,18.10
2012,06,24,16,21,18.10
2012,06,24,16,22,18.10
2012,06,24,16,23,18.10
2012,06,24,16,24,18.10
2012,06,24,16,25,18.10
2012,06,24,16,26,18.10
2012,06,24,16,27,18.20
2012,06,24,16,28,18.30
2012,06,24,16,29,18.40
2012,06,24,16,30,18.40
2012,06,24,16,31,18.40
2012,06,24,16,32,18.50
2012,06,24,16,33,18.40
2012,06,24,16,34,18.30
2012,06,24,16,35,18.30
2012,06,24,16,36,18.20
2012,06,24,16,37,18.10
2012,06,24,16,38,18.00
2012,06,24,16,39,18.00
2012,06,24,16,40,17.90
2012,06,24,16,41,17.80
2012,06,24,16,42,17.80
2012,06,24,16,43,17.70
2012,06,24,16,44,17.70
2012,06,24,16,45,17.60
2012,06,24,16,46,17.60
2012,06,24,16,47,17.60
2012,06,24,16,48,17.60
2012,06,24,16,49,17.60
2012,06,24,16,50,17.50
2012,06,24,16,51,17.60
2012,06,24,16,52,17.60
2012,06,24,16,53,17.60
2012,06,24,16,54,17.60
2012,06,24,16,55,17.60
2012,06,24,16,56,17.60
2012,06,24,16,57,17.50
2012,06,24,16,58,17.50
2012,06,24,16,59,17.50
2012,06,24,17,00,17.40
2012,06,24,17,01,17.40
2012,06,24,17,02,17.40
2012,06,24,17,03,17.40
2012,06,24,17,04,17.40
2012,06,24,17,05,17.40
2012,06,24,17,06,17.40
2012,06,24,17,07,17.30
2012,06,24,17,08,17.40
2012,06,24,17,09,17.40
2012,06,24,17,10,17.30
2012,06,24,17,11,17.30
2012,06,24,17,12,17.30
2012,06,24,17,13,17.30
2012,06,24,17,14,17.30
2012,06,24,17,15,17.30
2012,06,24,17,16,17.40
2012,06,24,17,17,17.40
2012,06,24,17,18,17.40
2012,06,24,17,19,17.40
2012,06,24,17,20,17.40
2012,06,24,17,21,17.40
2012,06,24,17,22,17.40
2012,06,24,17,23,17.40
2012,06,24,17,24,17.40
2012,06,24,17,25,17.40
2012,06,24,17,26,17.40
2012,06,24,17,27,17.40
2012,06,24,17,28,17.40
2012,06,24,17,29,17.40
2012,06,24,17,30,17.50
2012,06,24,17,31,17.50
2012,06,24,17,32,17.50
2012,06,24,17,33,17.50
2012,06,24,17,34,17.50
2012,06,24,17,35,17.50
2012,06,24,17,36,17.50
2012,06,24,17,37,17.50
2012,06,24,17,38,17.50
2012,06,24,17,39,17.50
2012,06,24,17,40,17.50
2012,06,24,17,41,17.50
2012,06,24,17,42,17.50
2012,06,24,17,43,17.60
2012,06,24,17,44,17.60
2012,06,24,17,45,17.60